CAPE
2 3 1 0 0 0 0 0 0 0 0 0 0 0 0 0 0 0 0 11 8 0 0 0 0 0 0 0 0 0 0 7 28 51 12 30 56 28 62 109 252 182 39 46 13 7 1 56 125 56 59 27 205 1224
4 1 0 0 0 0 0 0 0 0 0 0 0 0 0 0 0 0 0 2 3 0 0 0 0 0 0 0 0 0 0 1 2 87 55 105 82 62 76 57 270 125 178 84 82 45 303 275 327 225 86 25 233 915
0 2 0 0 0 0 0 0 0 0 0 0 0 0 0 0 0 0 0 0 0 0 0 0 0 0 0 0 0 0 0 0 45 95 46 52 62 54 64 65 88 118 9 1 121 229 170 248 297 111 268 70 75 660
2 0 0 0 0 0 0 0 0 0 0 0 0 0 0 0 0 0 0 0 0 0 0 0 0 0 0 0 4 1 0 0 0 4 8 12 1 10 5 25 63 101 26 26 14 171 276 334 135 36 100 154 191 252
0 0 0 0 2 0 0 0 0 0 0 0 0 0 0 0 0 0 0 0 0 0 0 0 0 0 1 2 20 23 12 1 0 0 0 1 0 1 0 2 0 43 96 46 28 42 46 101 164 186 25 132 335 299
0 0 0 0 0 0 0 0 0 0 0 0 0 0 0 0 0 0 0 11 1 0 0 0 0 0 5 28 55 79 59 49 13 3 0 0 0 0 0 0 34 218 175 180 112 39 31 25 31 57 184 506 604 870
0 0 0 0 0 0 0 0 0 0 0 0 0 0 0 0 0 0 0 1 9 17 0 0 0 19 26 54 68 68 48 55 43 9 17 3 0 44 26 0 0 0 138 250 109 2 0 14 91 33 0 11 601 710
0 0 0 0 0 0 0 0 0 0 0 0 0 0 0 0 0 0 0 0 1 9 12 0 0 42 25 130 118 105 89 54 50 25 22 8 9 47 30 4 0 28 48 61 7 0 0 17 12 19 34 16 421 731
0 0 0 0 0 0 0 0 0 0 38 0 0 0 0 0 0 35 2 3 0 9 0 21 19 88 73 150 161 124 128 43 22 4 0 28 5 19 26 2 40 58 45 8 1 25 1 0 6 27 184 274 569 572
0 0 0 0 0 0 0 0 38 42 20 1 0 0 0 22 17 10 2 0 0 0 0 0 0 0 23 190 198 37 89 106 90 65 58 30 1 0 0 143 93 71 34 0 0 0 0 7 0 12 280 369 524 619
0 0 0 0 0 0 25 36 29 11 0 0 13 16 53 19 7 75 25 0 0 0 0 0 7 15 47 83 102 109 108 52 0 95 96 97 69 228 190 172 164 40 57 18 13 0 0 0 11 24 159 143 366 631
0 0 0 0 0 6 24 20 7 0 46 0 0 0 1 59 77 33 0 69 61 52 51 132 81 89 114 105 101 85 53 1 0 59 69 55 130 102 117 148 146 181 98 70 43 3 0 0 0 0 3 79 335 859
0 0 0 0 0 11 17 18 0 2 3 17 0 0 50 26 0 0 0 55 14 85 85 69 86 53 146 107 81 85 67 22 80 0 53 80 77 190 139 35 107 118 198 258 68 24 0 0 0 0 0 0 65 809
0 0 0 0 0 2 9 14 3 3 4 17 0 0 0 0 0 37 87 120 97 122 243 249 111 99 107 76 77 59 68 54 1 0 1 44 38 67 55 105 219 194 339 212 70 34 21 2 11 7 96 441 493 400
0 0 0 0 1 7 17 16 3 31 41 0 53 0 0 2 21 11 86 202 167 249 99 0 1 62 81 14 69 54 59 60 150 151 66 39 25 41 22 85 134 120 170 299 168 54 41 0 60 94 341 511 540 546
0 0 0 0 4 12 9 10 38 72 18 16 8 0 17 3 19 48 87 141 133 112 21 3 0 50 64 68 25 12 39 61 84 98 93 135 119 117 106 136 127 69 319 105 85 108 109 107 71 47 206 255 402 487
0 14 1 0 6 1 0 30 67 34 22 35 21 16 12 10 3 26 16 119 190 131 0 2 2 43 76 52 1 5 29 67 71 63 93 87 92 78 99 120 147 190 107 34 36 57 88 184 89 47 41 63 10 428
6 15 0 0 2 29 57 3 34 44 25 4 6 0 11 5 28 16 55 80 160 121 11 12 17 10 3 0 0 0 1 8 64 122 85 132 125 164 117 96 110 153 178 15 42 91 78 137 377 308 180 3 1 146
3 5 0 0 2 17 57 44 54 25 7 24 18 18 20 27 43 65 74 55 148 195 99 73 57 87 45 36 100 73 31 80 76 110 282 310 521 406 372 220 119 71 53 76 58 47 158 370 489 366 666 391 228 398
0 0 0 0 0 56 12 15 139 40 20 38 34 34 38 35 22 24 61 126 104 149 125 37 114 43 54 39 192 20 119 366 345 126 37 197 348 367 47 21 12 25 26 41 47 38 36 120 254 201 177 188 338 240
0 1 0 0 29 15 26 50 88 114 81 45 27 34 14 27 16 15 27 39 38 14 21 11 27 39 29 147 796 780 400 499 253 276 239 180 189 160 151 253 36 12 2 16 20 19 52 83 65 110 78 96 123 137
60 3 63 37 20 69 31 19 19 45 21 0 1 15 6 17 31 37 65 52 21 7 15 25 20 12 55 196 500 464 519 695 377 219 176 232 415 396 350 159 141 158 82 34 12 7 28 39 74 14 19 16 18 129
1 0 34 56 44 26 0 33 12 25 23 52 81 81 115 200 231 422 264 133 90 103 159 193 76 695 438 672 442 479 559 346 299 242 415 512 395 305 197 79 227 142 116 290 71 42 71 79 54 78 58 0 6 174
0 18 42 43 33 0 14 37 72 24 33 7 28 51 63 119 300 320 169 120 92 197 112 130 380 325 391 384 218 262 300 524 134 287 386 366 184 275 270 184 93 228 259 226 165 154 88 56 123 152 136 37 48 45
14 0 1 0 4 26 23 23 16 6 12 47 11 54 44 89 69 244 215 274 227 326 261 217 189 102 58 87 63 63 61 103 123 151 37 94 204 193 156 27 15 33 149 173 108 113 125 101 75 101 109 21 14 23
0 2 0 16 23 10 40 49 49 39 28 14 64 117 239 95 50 86 165 178 238 262 184 71 51 32 73 159 9 10 3 12 27 28 79 174 136 35 33 27 3 4 0 0 0 0 5 7 5 1 1 5 1 1
0 14 28 20 14 26 32 45 42 56 37 57 89 5 0 2 8 30 98 48 69 119 93 89 43 1 25 187 313 167 179 194 259 81 29 8 0 3 0 0 1 1 10 12 6 10 4 0 2 1 0 1 7 5
8 32 20 45 57 41 43 33 12 6 79 16 14 1 0 0 1 17 30 17 46 35 55 7 27 53 172 120 107 112 102 86 97 69 72 67 49 44 38 16 19 22 14 1 8 15 15 27 14 11 12 15 11 11
3 25 8 16 11 25 40 23 13 100 69 4 0 0 0 0 0 7 0 5 37 66 0 0 15 36 57 59 0 0 0 0 11 51 48 43 48 45 35 45 48 53 24 6 1 1 6 3 0 8 1 0 0 0
8 10 5 10 18 30 81 127 86 70 2 0 0 0 0 0 2 0 5 3 46 176 212 70 60 28 7 0 0 0 0 0 0 0 0 0 0 0 0 0 7 0 0 11 0 5 0 26 0 0 0 0 0 0
136 87 28 39 18 11 13 0 0 0 0 0 0 0 0 0 26 29 32 45 86 159 86 60 16 1 0 0 0 0 0 0 0 0 0 0 0 0 0 0 0 0 0 0 0 0 0 0 0 0 0 0 0 0
3 0 0 0 0 0 0 0 0 0 0 0 0 0 0 0 31 117 70 62 91 134 74 10 0 0 0 0 0 0 0 0 0 0 0 0 0 0 0 0 0 0 0 0 0 0 0 0 0 0 0 0 0 0
0 0 0 0 0 0 0 0 0 0 0 0 6 6 16 68 42 164 223 130 158 96 1 0 0 0 0 0 0 0 0 0 0 0 0 0 0 0 0 0 0 0 0 0 0 0 0 0 0 0 0 0 1 2
CIN
-1 -2 -4 -0 -0 -0 -0 -0 -0 -0 -0 -0 -0 -0 -0 -0 -0 -0 -0 -2 -2 -0 -0 -0 -0 -0 -0 -0 -0 -0 -0 -14 -31 -14 -3 -4 -10 -13 -5 -14 -17 -24 -13 -37 -1 -15 -1 -127 -169 -31 -38 -77 -76 -117
-0 -0 -0 -0 -0 -0 -0 -0 -0 -0 -0 -0 -0 -0 -0 -0 -0 -0 -0 -0 -1 -0 -0 -0 -0 -0 -0 -0 -0 -0 -0 -0 -9 -15 -41 -28 -14 -23 -34 -11 -41 -26 -1 -10 -91 -24 -71 -161 -107 -254 -144 -10 -91 -42
-0 -0 -0 -0 -0 -0 -0 -0 -0 -0 -0 -0 -0 -0 -0 -0 -0 -0 -0 -0 -0 -0 -0 -0 -0 -0 -0 -0 -0 -0 -0 -0 -7 -10 -10 -28 -9 -27 -5 -30 -32 -21 -30 -2 -1 -38 -214 -251 -321 -388 -484 -257 -17 -19
-0 -0 -0 -0 -0 -0 -0 -0 -0 -0 -0 -0 -0 -0 -0 -0 -0 -0 -0 -0 -0 -0 -0 -0 -0 -0 -0 -0 -4 -1 -0 -0 -0 -2 -5 -9 -2 -7 -3 -11 -15 -36 -83 -14 -14 -45 -184 -159 -90 -77 -442 -417 -122 -17
-0 -0 -0 -0 -0 -0 -0 -0 -0 -0 -0 -0 -0 -0 -0 -0 -0 -0 -0 -0 -0 -0 -0 -0 -0 -0 -5 -4 -6 -11 -2 -1 -0 -0 -0 -2 -0 -6 -0 -4 -0 -72 -57 -61 -4 -130 -99 -173 -41 -11 -268 -94 -122 -62
-0 -0 -0 -0 -0 -0 -0 -0 -0 -0 -0 -0 -0 -0 -0 -0 -0 -0 -0 -6 -1 -0 -0 -0 -0 -0 -3 -19 -9 -17 -15 -12 -0 -1 -0 -0 -0 -0 -0 -0 -23 -38 -62 -82 -69 -183 -15 -22 -63 -65 -9 -1 -98 -102
-0 -0 -0 -0 -0 -0 -0 -0 -0 -0 -0 -0 -0 -0 -0 -0 -0 -0 -0 -0 -0 -4 -0 -0 -0 -1 -14 -5 -8 -12 -9 -12 -2 -1 -18 -12 -0 -21 -5 -0 -0 -0 -44 -46 -110 -138 -0 -27 -84 -76 -0 -46 -40 -90
-0 -0 -0 -0 -0 -0 -0 -0 -0 -0 -0 -0 -0 -0 -0 -0 -0 -0 -0 -0 -4 -0 -1 -0 -0 -6 -34 -10 -18 -42 -24 -34 -33 -26 -17 -4 -7 -22 -3 -48 -0 -10 -21 -44 -35 -0 -0 -1 -4 -181 -94 -123 -40 -87
-0 -0 -0 -0 -0 -0 -0 -0 -0 -0 -1 -0 -0 -0 -0 -0 -0 -7 -3 -3 -1 -2 -0 -0 -0 -2 -17 -28 -12 -23 -42 -15 -20 -8 -1 -12 -3 -3 -55 -15 -22 -40 -34 -15 -4 -23 -12 -3 -48 -8 -4 -15 -20 -70
-0 -0 -0 -0 -0 -0 -0 -0 -0 -1 -9 -10 -0 -0 -0 -2 -60 -44 -0 -0 -0 -0 -0 -0 -0 -0 -8 -18 -6 -14 -3 -0 -0 -5 -15 -10 -3 -0 -0 -33 -36 -38 -41 -0 -0 -0 -13 -10 -2 -74 -30 -9 -37 -56
-0 -0 -0 -0 -0 -0 -0 -1 -6 -14 -0 -0 -0 -0 -10 -44 -2 -1 -0 -0 -0 -0 -0 -0 -4 -3 -17 -3 -6 -22 -2 -2 -0 -5 -5 -8 -8 -18 -28 -26 -61 -34 -7 -6 -43 -0 -0 -0 -9 -43 -36 -6 -13 -47
-0 -0 -0 -0 -0 -0 -0 -2 -6 -0 -2 -0 -0 -0 -0 -1 -1 -1 -0 -0 -0 -1 -12 -4 -12 -15 -14 -11 -12 -14 -0 -2 -0 -12 -1 -2 -20 -50 -48 -32 -28 -37 -25 -18 -69 -68 -0 -0 -0 -0 -38 -2 -2 -54
-0 -0 -0 -0 -0 -1 -3 -4 -0 -0 -0 -2 -0 -0 -0 -1 -0 -0 -0 -2 -0 -5 -15 -12 -3 -10 -13 -7 -6 -6 -0 -0 -10 -0 -5 -17 -39 -15 -10 -24 -17 -29 -25 -21 -33 -40 -0 -0 -0 -0 -0 -2 -7 -85
-0 -0 -0 -0 -0 -12 -19 -14 -15 -13 -0 -0 -0 -0 -0 -0 -0 -0 -0 -2 -9 -6 -3 -4 -3 -8 -15 -10 -10 -0 -4 -18 -1 -0 -0 -10 -21 -13 -18 -11 -3 -5 -6 -36 -17 -18 -28 -3 -0 -6 -0 -34 -89 -67
-0 -0 -0 -0 -11 -26 -17 -22 -22 -1 -0 -0 -0 -0 -0 -0 -2 -4 -2 -14 -16 -12 -4 -0 -2 -2 -6 -3 -10 -7 -0 -3 -1 -1 -9 -17 -28 -19 -17 -6 -4 -15 -25 -37 -45 -13 -57 -0 -13 -41 -11 -40 -60 -64
-0 -0 -0 -0 -32 -13 -23 -17 -1 -0 -4 -3 -0 -0 -6 -3 -2 -0 -13 -29 -12 -9 -19 -5 -0 -3 -1 -2 -0 -0 -1 -2 -4 -11 -34 -39 -27 -17 -13 -10 -5 -30 -10 -90 -52 -11 -36 -24 -76 -18 -27 -37 -33 -24
-0 -0 -1 -3 -28 -16 -0 -0 -0 -0 -6 -0 -1 -0 -1 -9 -15 -2 -1 -5 -10 -11 -0 -0 -0 -3 -8 -0 -0 -11 -1 -9 -15 -49 -78 -59 -46 -57 -47 -35 -14 -10 -36 -11 -7 -103 -48 -73 -54 -21 -12 -67 -30 -28
-0 -0 -0 -0 -0 -1 -0 -5 -0 -0 -0 -0 -0 -0 -8 -29 -2 -11 -13 -8 -17 -16 -9 -1 -7 -0 -0 -0 -0 -0 -0 -13 -83 -66 -80 -76 -64 -56 -62 -44 -35 -22 -13 -34 -150 -141 -90 -42 -40 -29 -14 -9 -7 -13
-0 -0 -0 -0 -0 -0 -0 -1 -0 -0 -1 -9 -5 -4 -17 -2 -4 -7 -15 -23 -29 -26 -12 -6 -0 -0 -7 -36 -27 -50 -44 -46 -42 -75 -43 -47 -43 -40 -26 -45 -48 -43 -27 -59 -77 -39 -92 -102 -52 -26 -29 -13 -22 -16
-0 -0 -0 -0 -0 -0 -0 -0 -4 -1 -0 -1 -9 -0 -1 -2 -7 -7 -2 -15 -34 -14 -9 -1 -0 -34 -17 -28 -31 -10 -20 -22 -21 -31 -44 -32 -42 -28 -23 -32 -33 -39 -61 -19 -17 -10 -5 -112 -99 -99 -37 -21 -33 -32
-0 -3 -0 -0 -2 -0 -1 -0 -1 -1 -3 -0 -16 -14 -23 -31 -27 -13 -1 -45 -27 -9 -2 -5 -16 -17 -1 -53 -34 -22 -29 -18 -31 -24 -28 -38 -43 -28 -74 -65 -14 -39 -111 -71 -101 -13 -33 -30 -15 -24 -23 -8 -31 -32
-6 -2 -1 -0 -0 -0 -0 -1 -0 -4 -0 -0 -5 -10 -4 -5 -4 -6 -6 -2 -7 -20 -23 -23 -20 -3 -3 -13 -18 -22 -29 -24 -37 -71 -39 -32 -41 -40 -42 -45 -40 -55 -50 -53 -125 -90 -45 -103 -101 -13 -6 -13 -8 -79
-0 -0 -0 -0 -0 -1 -0 -4 -0 -1 -2 -1 -1 -2 -2 -1 -4 -6 -2 -3 -15 -27 -19 -25 -52 -10 -27 -30 -35 -37 -40 -52 -50 -39 -32 -26 -28 -33 -52 -47 -48 -44 -36 -30 -27 -69 -15 -53 -12 -63 -43 -5 -38 -4
-0 -0 -0 -0 -0 -0 -0 -0 -0 -1 -2 -1 -0 -1 -6 -7 -15 -2 -3 -33 -62 -52 -79 -65 -43 -43 -46 -31 -36 -37 -49 -22 -33 -30 -29 -31 -49 -33 -24 -21 -18 -7 -29 -33 -48 -56 -82 -10 -60 -50 -32 -27 -16 -45
-0 -0 -0 -0 -2 -0 -0 -0 -2 -0 -1 -5 -0 -1 -8 -9 -3 -2 -3 -8 -34 -2 -13 -32 -50 -66 -60 -39 -42 -15 -38 -24 -43 -43 -37 -54 -46 -55 -23 -25 -22 -24 -39 -34 -42 -57 -55 -78 -92 -83 -41 -3 -5 -10
-0 -0 -3 -3 -1 -0 -0 -0 -0 -0 -0 -0 -2 -7 -2 -2 -1 -3 -1 -0 -0 -0 -0 -3 -14 -38 -30 -45 -0 -0 -0 -4 -104 -25 -37 -31 -27 -21 -12 -5 -20 -14 -0 -0 -0 -0 -0 -0 -0 -1 -1 -1 -1 -0
-0 -1 -5 -1 -2 -1 -0 -0 -3 -0 -1 -1 -2 -0 -0 -0 -0 -0 -0 -1 -3 -0 -2 -10 -17 -0 -28 -38 -57 -69 -43 -34 -28 -37 -15 -3 -0 -4 -0 -0 -1 -1 -4 -54 -45 -16 -5 -0 -19 -0 -0 -22 -0 -0
-0 -1 -0 -1 -2 -0 -1 -0 -0 -0 -2 -3 -0 -0 -0 -0 -0 -0 -3 -5 -3 -3 -20 -3 -59 -103 -73 -55 -28 -24 -18 -15 -36 -14 -27 -30 -36 -33 -30 -50 -2 -2 -3 -2 -29 -33 -26 -12 -19 -26 -29 -26 -40 -26
-0 -0 -1 -1 -0 -0 -0 -0 -0 -3 -2 -0 -0 -0 -0 -0 -0 -0 -0 -0 -3 -9 -0 -0 -65 -53 -39 -42 -0 -0 -0 -0 -8 -15 -42 -38 -18 -8 -16 -30 -20 -22 -23 -16 -0 -16 -52 -38 -0 -16 -5 -0 -0 -0
-0 -1 -0 -0 -0 -0 -3 -7 -1 -0 -0 -0 -0 -0 -0 -0 -0 -0 -0 -0 -12 -23 -23 -8 -3 -4 -15 -0 -0 -0 -0 -0 -0 -0 -0 -0 -0 -0 -0 -0 -16 -0 -0 -14 -0 -18 -5 -33 -0 -0 -0 -0 -0 -0
-5 -5 -4 -2 -0 -6 -6 -0 -0 -0 -0 -0 -0 -0 -0 -0 -5 -24 -57 -59 -30 -21 -19 -19 -6 -0 -0 -0 -0 -0 -0 -0 -0 -0 -0 -0 -0 -0 -0 -0 -0 -0 -0 -0 -0 -0 -0 -0 -0 -0 -0 -0 -0 -0
-0 -0 -0 -0 -0 -0 -0 -0 -0 -0 -0 -0 -0 -0 -0 -0 -20 -33 -52 -60 -38 -12 -11 -6 -0 -0 -0 -0 -0 -0 -0 -0 -0 -0 -0 -0 -0 -0 -0 -0 -0 -0 -0 -0 -0 -0 -0 -0 -0 -0 -0 -0 -0 -0
-0 -0 -0 -0 -0 -0 -0 -0 -0 -0 -0 -0 -3 -5 -53 -5 -5 -2 -19 -44 -32 -5 -4 -0 -0 -0 -0 -0 -0 -0 -0 -0 -0 -0 -0 -0 -0 -0 -0 -0 -0 -0 -0 -0 -0 -0 -0 -0 -0 -0 -0 -0 -1 -1
Wind_Speed
nan nan nan nan nan nan nan nan nan nan nan nan nan nan nan nan nan nan nan nan nan nan nan nan nan nan nan nan nan nan nan nan nan nan nan nan nan nan nan 33 37 34 nan nan nan nan nan nan 49 nan nan nan 36 41
nan nan nan nan nan nan nan nan nan nan nan nan nan nan nan nan nan nan nan nan nan nan nan nan nan nan nan nan nan nan nan nan nan nan nan 23 nan nan nan nan 37 40 43 nan nan nan 30 33 42 42 nan nan 41 38
nan nan nan nan nan nan nan nan nan nan nan nan nan nan nan nan nan nan nan nan nan nan nan nan nan nan nan nan nan nan nan nan nan nan nan nan nan nan nan nan nan 43 nan nan 39 32 38 34 42 55 46 nan nan 44
nan nan nan nan nan nan nan nan nan nan nan nan nan nan nan nan nan nan nan nan nan nan nan nan nan nan nan nan nan nan nan nan nan nan nan nan nan nan nan nan nan 31 nan nan nan 37 43 41 49 nan 49 58 51 39
nan nan nan nan nan nan nan nan nan nan nan nan nan nan nan nan nan nan nan nan nan nan nan nan nan nan nan nan nan nan nan nan nan nan nan nan nan nan nan nan nan nan nan nan nan nan nan 46 40 42 nan 19 35 32
nan nan nan nan nan nan nan nan nan nan nan nan nan nan nan nan nan nan nan nan nan nan nan nan nan nan nan nan nan nan nan nan nan nan nan nan nan nan nan nan nan 27 26 34 38 nan nan nan nan nan 5 28 29 33
nan nan nan nan nan nan nan nan nan nan nan nan nan nan nan nan nan nan nan nan nan nan nan nan nan nan nan nan nan nan nan nan nan nan nan nan nan nan nan nan nan nan 15 29 33 nan nan nan nan nan nan nan 11 16
nan nan nan nan nan nan nan nan nan nan nan nan nan nan nan nan nan nan nan nan nan nan nan nan nan nan nan 10 9 12 nan nan nan nan nan nan nan nan nan nan nan nan nan nan nan nan nan nan nan nan nan nan 37 25
nan nan nan nan nan nan nan nan nan nan nan nan nan nan nan nan nan nan nan nan nan nan nan nan nan nan nan 6 8 8 8 nan nan nan nan nan nan nan nan nan nan nan nan nan nan nan nan nan nan nan 33 31 29 40
nan nan nan nan nan nan nan nan nan nan nan nan nan nan nan nan nan nan nan nan nan nan nan nan nan nan nan 6 5 nan nan 5 nan nan nan nan nan nan nan 14 nan nan nan nan nan nan nan nan nan nan 35 41 37 39
nan nan nan nan nan nan nan nan nan nan nan nan nan nan nan nan nan nan nan nan nan nan nan nan nan nan nan nan 6 5 3 nan nan nan nan nan nan 14 14 9 10 nan nan nan nan nan nan nan nan nan 41 37 29 30
nan nan nan nan nan nan nan nan nan nan nan nan nan nan nan nan nan nan nan nan nan nan nan 4 nan nan 3 5 6 nan nan nan nan nan nan nan 7 8 9 13 11 10 nan nan nan nan nan nan nan nan nan nan 46 46
nan nan nan nan nan nan nan nan nan nan nan nan nan nan nan nan nan nan nan nan nan nan nan nan nan nan 3 6 nan nan nan nan nan nan nan nan nan 6 6 nan 16 15 13 17 nan nan nan nan nan nan nan nan nan 28
nan nan nan nan nan nan nan nan nan nan nan nan nan nan nan nan nan nan nan 5 nan 4 3 2 3 nan 4 nan nan nan nan nan nan nan nan nan nan nan nan 12 14 15 17 20 nan nan nan nan nan nan nan 16 27 30
nan nan nan nan nan nan nan nan nan nan nan nan nan nan nan nan nan nan nan 10 5 6 nan nan nan nan nan nan nan nan nan nan 7 4 nan nan nan nan nan nan 12 13 15 15 19 nan nan nan nan nan 24 35 30 33
nan nan nan nan nan nan nan nan nan nan nan nan nan nan nan nan nan nan nan 6 4 9 nan nan nan nan nan nan nan nan nan nan nan nan nan 7 8 2 4 2 3 nan 8 10 nan 20 16 10 nan nan 25 29 35 31
nan nan nan nan nan nan nan nan nan nan nan nan nan nan nan nan nan nan nan 10 10 9 nan nan nan nan nan nan nan nan nan nan nan nan nan nan nan nan nan 4 3 2 2 nan nan nan nan 29 nan nan nan nan nan 27
nan nan nan nan nan nan nan nan nan nan nan nan nan nan nan nan nan nan nan nan 6 6 nan nan nan nan nan nan nan nan nan nan nan 8 nan 15 13 11 8 nan 8 5 4 nan nan nan nan 27 23 26 33 nan nan 27
nan nan nan nan nan nan nan nan nan nan nan nan nan nan nan nan nan nan nan nan 6 4 nan nan nan nan nan nan 4 nan nan nan nan 8 10 13 14 12 6 3 6 nan nan nan nan nan 16 21 23 24 27 24 18 13
nan nan nan nan nan nan nan nan 8 nan nan nan nan nan nan nan nan nan nan 12 8 4 5 nan 5 nan nan nan 2 nan 2 6 5 4 nan 2 5 8 nan nan nan nan nan nan nan nan nan 19 27 31 26 27 21 23
nan nan nan nan nan nan nan nan nan 6 nan nan nan nan nan nan nan nan nan nan nan nan nan nan nan nan nan 2 2 3 7 6 6 5 6 5 1 5 8 11 nan nan nan nan nan nan nan nan nan 23 nan nan 31 27
nan nan nan nan nan nan nan nan nan nan nan nan nan nan nan nan nan nan nan nan nan nan nan nan nan nan nan 7 8 8 10 9 11 8 5 4 5 6 4 3 5 5 nan nan nan nan nan nan nan nan nan nan nan 26
nan nan nan nan nan nan nan nan nan nan nan nan nan nan 10 8 7 14 18 10 nan 6 6 8 nan 4 12 14 13 12 10 9 7 5 6 8 8 9 8 nan 7 10 7 6 nan nan nan nan nan nan nan nan nan 26
nan nan nan nan nan nan nan nan nan nan nan nan nan nan nan 8 11 17 16 14 nan 15 17 17 11 11 14 15 11 7 5 4 4 6 3 5 5 5 8 10 nan 11 9 9 8 11 nan nan 15 14 15 nan nan nan
nan nan nan nan nan nan nan nan nan nan nan nan nan nan nan nan nan 15 18 15 9 10 13 6 9 12 nan nan nan nan nan 4 5 7 nan nan 3 3 7 nan nan nan 7 9 11 15 16 16 nan 20 16 nan nan nan
nan nan nan nan nan nan nan nan nan nan nan nan nan 11 6 nan nan nan 15 12 7 9 11 nan nan nan nan 4 nan nan nan nan nan nan nan 4 2 nan nan nan nan nan nan nan nan nan nan nan nan nan nan nan nan nan
nan nan nan nan nan nan nan nan nan nan nan nan nan nan nan nan nan nan nan nan nan 7 nan nan nan nan nan 6 9 7 6 5 5 nan nan nan nan nan nan nan nan nan nan nan nan nan nan nan nan nan nan nan nan nan
nan nan nan nan nan nan nan nan nan nan nan nan nan nan nan nan nan nan nan nan nan nan nan nan nan nan 12 13 12 10 4 nan nan nan nan nan nan nan nan nan nan nan nan nan nan nan nan nan nan nan nan nan nan nan
nan nan nan nan nan nan nan nan nan 15 nan nan nan nan nan nan nan nan nan nan nan nan nan nan nan nan nan nan nan nan nan nan nan nan nan nan nan nan nan nan nan nan nan nan nan nan nan nan nan nan nan nan nan nan
nan nan nan nan nan nan nan 20 nan nan nan nan nan nan nan nan nan nan nan nan nan 10 11 nan nan nan nan nan nan nan nan nan nan nan nan nan nan nan nan nan nan nan nan nan nan nan nan nan nan nan nan nan nan nan
18 nan nan nan nan nan nan nan nan nan nan nan nan nan nan nan nan nan nan nan nan 7 nan nan nan nan nan nan nan nan nan nan nan nan nan nan nan nan nan nan nan nan nan nan nan nan nan nan nan nan nan nan nan nan
nan nan nan nan nan nan nan nan nan nan nan nan nan nan nan nan nan 2 nan nan nan 7 nan nan nan nan nan nan nan nan nan nan nan nan nan nan nan nan nan nan nan nan nan nan nan nan nan nan nan nan nan nan nan nan
nan nan nan nan nan nan nan nan nan nan nan nan nan nan nan nan nan 3 3 5 3 nan nan nan nan nan nan nan nan nan nan nan nan nan nan nan nan nan nan nan nan nan nan nan nan nan nan nan nan nan nan nan nan nan
Wind_Direction
nan nan nan nan nan nan nan nan nan nan nan nan nan nan nan nan nan nan nan nan nan nan nan nan nan nan nan nan nan nan nan nan nan nan nan nan nan nan nan 220 218 222 nan nan nan nan nan nan 223 nan nan nan 236 195
nan nan nan nan nan nan nan nan nan nan nan nan nan nan nan nan nan nan nan nan nan nan nan nan nan nan nan nan nan nan nan nan nan nan nan 239 nan nan nan nan 228 224 225 nan nan nan 231 233 226 227 nan nan 236 231
nan nan nan nan nan nan nan nan nan nan nan nan nan nan nan nan nan nan nan nan nan nan nan nan nan nan nan nan nan nan nan nan nan nan nan nan nan nan nan nan nan 227 nan nan 212 213 212 204 230 230 228 nan nan 220
nan nan nan nan nan nan nan nan nan nan nan nan nan nan nan nan nan nan nan nan nan nan nan nan nan nan nan nan nan nan nan nan nan nan nan nan nan nan nan nan nan 230 nan nan nan 214 207 208 211 nan 234 222 213 184
nan nan nan nan nan nan nan nan nan nan nan nan nan nan nan nan nan nan nan nan nan nan nan nan nan nan nan nan nan nan nan nan nan nan nan nan nan nan nan nan nan nan nan nan nan nan nan 207 217 206 nan 212 169 139
nan nan nan nan nan nan nan nan nan nan nan nan nan nan nan nan nan nan nan nan nan nan nan nan nan nan nan nan nan nan nan nan nan nan nan nan nan nan nan nan nan 241 238 236 223 nan nan nan nan nan 197 235 224 193
nan nan nan nan nan nan nan nan nan nan nan nan nan nan nan nan nan nan nan nan nan nan nan nan nan nan nan nan nan nan nan nan nan nan nan nan nan nan nan nan nan nan 238 225 225 nan nan nan nan nan nan nan 237 226
nan nan nan nan nan nan nan nan nan nan nan nan nan nan nan nan nan nan nan nan nan nan nan nan nan nan nan 270 254 243 nan nan nan nan nan nan nan nan nan nan nan nan nan nan nan nan nan nan nan nan nan nan 206 230
nan nan nan nan nan nan nan nan nan nan nan nan nan nan nan nan nan nan nan nan nan nan nan nan nan nan nan 243 283 254 232 nan nan nan nan nan nan nan nan nan nan nan nan nan nan nan nan nan nan nan 207 133 230 251
nan nan nan nan nan nan nan nan nan nan nan nan nan nan nan nan nan nan nan nan nan nan nan nan nan nan nan 258 243 nan nan 173 nan nan nan nan nan nan nan 209 nan nan nan nan nan nan nan nan nan nan 208 209 247 241
nan nan nan nan nan nan nan nan nan nan nan nan nan nan nan nan nan nan nan nan nan nan nan nan nan nan nan nan 209 195 260 nan nan nan nan nan nan 233 215 190 191 nan nan nan nan nan nan nan nan nan 213 192 204 239
nan nan nan nan nan nan nan nan nan nan nan nan nan nan nan nan nan nan nan nan nan nan nan 19 nan nan 66 196 201 nan nan nan nan nan nan nan 245 222 214 188 193 209 nan nan nan nan nan nan nan nan nan nan 171 246
nan nan nan nan nan nan nan nan nan nan nan nan nan nan nan nan nan nan nan nan nan nan nan nan nan nan 122 147 nan nan nan nan nan nan nan nan nan 216 211 nan 185 186 176 172 nan nan nan nan nan nan nan nan nan 239
nan nan nan nan nan nan nan nan nan nan nan nan nan nan nan nan nan nan nan 176 nan 236 274 308 2 nan 59 nan nan nan nan nan nan nan nan nan nan nan nan 181 174 173 181 175 nan nan nan nan nan nan nan 190 223 224
nan nan nan nan nan nan nan nan nan nan nan nan nan nan nan nan nan nan nan 221 246 253 nan nan nan nan nan nan nan nan nan nan 350 344 nan nan nan nan nan nan 193 176 182 186 219 nan nan nan nan nan 166 197 220 226
nan nan nan nan nan nan nan nan nan nan nan nan nan nan nan nan nan nan nan 248 216 258 nan nan nan nan nan nan nan nan nan nan nan nan nan 17 35 79 161 224 228 nan 172 196 nan 215 229 213 nan nan 219 219 212 213
nan nan nan nan nan nan nan nan nan nan nan nan nan nan nan nan nan nan nan 225 241 223 nan nan nan nan nan nan nan nan nan nan nan nan nan nan nan nan nan 123 239 203 199 nan nan nan nan 204 nan nan nan nan nan 211
nan nan nan nan nan nan nan nan nan nan nan nan nan nan nan nan nan nan nan nan 229 220 nan nan nan nan nan nan nan nan nan nan nan 51 nan 83 81 84 87 nan 115 139 243 nan nan nan nan 180 228 246 258 nan nan 130
nan nan nan nan nan nan nan nan nan nan nan nan nan nan nan nan nan nan nan nan 210 218 nan nan nan nan nan nan 29 nan nan nan nan 67 26 52 51 50 66 123 168 nan nan nan nan nan 198 205 210 218 241 254 241 238
nan nan nan nan nan nan nan nan 274 nan nan nan nan nan nan nan nan nan nan 199 208 220 201 nan 163 nan nan nan 352 nan 89 214 188 198 nan 35 45 11 nan nan nan nan nan nan nan nan nan 219 211 212 224 221 238 241
nan nan nan nan nan nan nan nan nan 219 nan nan nan nan nan nan nan nan nan nan nan nan nan nan nan nan nan 172 238 263 245 229 230 233 238 242 284 306 1 8 nan nan nan nan nan nan nan nan nan 215 nan nan 250 240
nan nan nan nan nan nan nan nan nan nan nan nan nan nan nan nan nan nan nan nan nan nan nan nan nan nan nan 194 232 255 264 247 241 250 212 266 275 263 239 195 294 354 nan nan nan nan nan nan nan nan nan nan nan 217
nan nan nan nan nan nan nan nan nan nan nan nan nan nan 125 145 154 165 164 166 nan 175 166 163 nan 230 232 242 267 265 242 231 240 262 261 277 278 271 243 nan 243 251 263 303 nan nan nan nan nan nan nan nan nan 219
nan nan nan nan nan nan nan nan nan nan nan nan nan nan nan 145 146 152 149 181 nan 188 203 176 219 251 258 254 232 221 213 282 260 210 248 297 287 259 241 237 nan 252 253 262 265 262 nan nan 234 244 246 nan nan nan
nan nan nan nan nan nan nan nan nan nan nan nan nan nan nan nan nan 173 200 207 251 192 227 206 227 246 nan nan nan nan nan 218 284 296 nan nan 320 235 240 nan nan nan 257 265 262 266 262 258 nan 246 244 nan nan nan
nan nan nan nan nan nan nan nan nan nan nan nan nan 166 162 nan nan nan 209 200 207 220 225 nan nan nan nan 150 nan nan nan nan nan nan nan 34 77 nan nan nan nan nan nan nan nan nan nan nan nan nan nan nan nan nan
nan nan nan nan nan nan nan nan nan nan nan nan nan nan nan nan nan nan nan nan nan 195 nan nan nan nan nan 147 154 133 114 111 122 nan nan nan nan nan nan nan nan nan nan nan nan nan nan nan nan nan nan nan nan nan
nan nan nan nan nan nan nan nan nan nan nan nan nan nan nan nan nan nan nan nan nan nan nan nan nan nan 116 116 129 127 110 nan nan nan nan nan nan nan nan nan nan nan nan nan nan nan nan nan nan nan nan nan nan nan
nan nan nan nan nan nan nan nan nan 176 nan nan nan nan nan nan nan nan nan nan nan nan nan nan nan nan nan nan nan nan nan nan nan nan nan nan nan nan nan nan nan nan nan nan nan nan nan nan nan nan nan nan nan nan
nan nan nan nan nan nan nan 168 nan nan nan nan nan nan nan nan nan nan nan nan nan 105 103 nan nan nan nan nan nan nan nan nan nan nan nan nan nan nan nan nan nan nan nan nan nan nan nan nan nan nan nan nan nan nan
145 nan nan nan nan nan nan nan nan nan nan nan nan nan nan nan nan nan nan nan nan 81 nan nan nan nan nan nan nan nan nan nan nan nan nan nan nan nan nan nan nan nan nan nan nan nan nan nan nan nan nan nan nan nan
nan nan nan nan nan nan nan nan nan nan nan nan nan nan nan nan nan 104 nan nan nan 78 nan nan nan nan nan nan nan nan nan nan nan nan nan nan nan nan nan nan nan nan nan nan nan nan nan nan nan nan nan nan nan nan
nan nan nan nan nan nan nan nan nan nan nan nan nan nan nan nan nan 229 298 11 35 nan nan nan nan nan nan nan nan nan nan nan nan nan nan nan nan nan nan nan nan nan nan nan nan nan nan nan nan nan nan nan nan nan